Peachtree City, GA

6:08 PM EST on December 08, 2019 (GMT -0500)
Peachtree City-Falcon

Weather History for KFFC - June, 2019

Change the Weather History Date:

Tuesday, June 4, 2019

  Actual Average Record
Temperature  
Mean Temperature 76 °F 74 °F  
Max Temperature 89 °F 85 °F 93 °F (2002)
Min Temperature 63 °F 62 °F 54 °F (2006)
Degree Days  
Heating Degree Days 0 0  
Month to date heating degree days 0 0  
Since 1 June heating degree days 0 0  
Since 1 July heating degree days 2325 2950  
Cooling Degree Days 11 9  
Month to date cooling degree days 46 34  
Year to date cooling degree days 453 224  
Since 1 June cooling degree days 46 34  
Growing Degree Days 26 (Base 50)    
Moisture  
Dew Point 62 °F    
Average Humidity 67    
Maximum Humidity 93    
Minimum Humidity 40    
Precipitation  
Precipitation 0.00 in 0.13 in 0.96 in (2002)
Month to date precipitation 0.00 0.51  
Year to date precipitation 20.76 22.03  
Snow  
Snow 0.00 in - - ()
Month to date snowfall 0.0  
Since 1 June snowfall 0.0  
Since 1 July snowfall T  
Snow Depth 0.00 in    
Sea Level Pressure  
Sea Level Pressure 30.06 in    
Wind  
Wind Speed 3 mph (ENE)    
Max Wind Speed 10 mph    
Max Gust Speed 15 mph    
Visibility 9 miles    
Events      
T = Trace of Precipitation, MM = Missing Value Source: NWS Daily Summary

Daily Weather History Graph

Daily Weather History Graph

Search for Another Location

Airport or City:

Astronomy

Jun. 04, 2019 Rise Set
Actual Time 6:29 AM EDT 8:44 PM EDT
Civil Twilight 6:00 AM EDT 9:12 PM EDT
Nautical Twilight 5:25 AM EDT 9:47 PM EDT
Astronomical Twilight 4:47 AM EDT 10:25 PM EDT
Moon 7:36 AM EDT (6/4) 10:11 PM EDT (6/4)
Length of Visible Light 15h 12m
Length of Day
14h 15m
New Moon, 2% of the Moon is Illuminated
Jun 4
New Moon
Jun 10
First Quarter
Jun 17
Full
Jun 25
Last Quarter
Jul 2
New

Hourly Weather History & Observations

Time (EDT) Temp. Heat Index Dew Point Humidity Pressure Visibility Wind Dir Wind Speed Gust Speed Precip Events Conditions
12:53 AM 68.0 °F - 61.0 °F 78% 30.03 in 10.0 mi Calm Calm - N/A   Clear
1:53 AM 66.9 °F - 61.0 °F 81% 30.04 in 10.0 mi Calm Calm - N/A   Clear
3:53 AM 64.0 °F - 60.1 °F 87% 30.02 in 9.0 mi Calm Calm - N/A   Clear
4:53 AM 64.0 °F - 60.1 °F 87% 30.03 in 8.0 mi Calm Calm - N/A   Clear
5:53 AM 63.0 °F - 60.1 °F 90% 30.04 in 8.0 mi Calm Calm - N/A   Clear
6:53 AM 63.0 °F - 60.1 °F 90% 30.06 in 6.0 mi Calm Calm - N/A   Clear
7:53 AM 66.9 °F - 62.1 °F 84% 30.07 in 8.0 mi Calm Calm - N/A   Clear
8:53 AM 73.0 °F - 59.0 °F 61% 30.09 in 10.0 mi ENE 6.9 mph - N/A   Clear
9:53 AM 77.0 °F - 60.1 °F 56% 30.10 in 10.0 mi East 5.8 mph - N/A   Clear
10:53 AM 79.0 °F - 62.1 °F 56% 30.10 in 10.0 mi ESE 8.1 mph - N/A   Clear
11:53 AM 81.0 °F 81.9 °F 62.1 °F 52% 30.12 in 10.0 mi NNE 9.2 mph - N/A   Clear
12:53 PM 82.9 °F 84.0 °F 63.0 °F 51% 30.10 in 9.0 mi Variable 5.8 mph - N/A   Clear
1:53 PM 84.0 °F 85.4 °F 64.0 °F 51% 30.09 in 9.0 mi Variable 3.5 mph - N/A   Clear
2:53 PM 86.0 °F 86.8 °F 63.0 °F 46% 30.08 in 9.0 mi NNE 5.8 mph - N/A   Clear
3:53 PM 86.0 °F 86.3 °F 62.1 °F 44% 30.06 in 9.0 mi Variable 5.8 mph - N/A   Clear
4:53 PM 88.0 °F 88.4 °F 62.1 °F 42% 30.04 in 10.0 mi Calm Calm - N/A   Clear
5:53 PM 88.0 °F 87.9 °F 61.0 °F 40% 30.03 in 10.0 mi Variable 3.5 mph - N/A   Clear
6:53 PM 86.0 °F 86.3 °F 62.1 °F 44% 30.03 in 9.0 mi Variable 4.6 mph - N/A   Clear
7:53 PM 84.0 °F 84.5 °F 62.1 °F 47% 30.01 in 9.0 mi NE 4.6 mph - N/A   Clear
8:53 PM 75.0 °F - 66.0 °F 73% 30.02 in 9.0 mi Calm Calm - N/A   Clear
9:53 PM 71.1 °F - 66.0 °F 84% 30.03 in 9.0 mi Calm Calm - N/A   Clear
10:53 PM 71.1 °F - 66.0 °F 84% 30.05 in 8.0 mi Calm Calm - N/A   Clear
11:53 PM 71.1 °F - 66.0 °F 84% 30.05 in 8.0 mi Calm Calm - N/A   Clear